Time,TemperatureF,DewpointF,PressureIn,WindDirection,WindDirectionDegrees,WindSpeedMPH,WindSpeedGustMPH,Humidity,HourlyPrecipIn,Conditions,Clouds,dailyrainin,SoftwareType,DateUTC
2013-03-26 00:05:00,63.9,41.0,29.98,NNW,333,5.0,-999.0,43,-99.99,,,0.01,weatherlink.com 1.10,2013-03-26 04:05:00,
2013-03-26 00:20:00,63.5,41.0,29.98,NW,313,3.0,-999.0,44,-99.99,,,0.00,weatherlink.com 1.10,2013-03-26 04:20:00,
2013-03-26 00:36:00,63.1,42.0,29.98,NW,317,3.0,-999.0,46,-99.99,,,0.00,weatherlink.com 1.10,2013-03-26 04:36:00,
2013-03-26 00:51:00,63.2,44.0,29.99,WNW,298,0.0,-999.0,50,-99.99,,,0.00,weatherlink.com 1.10,2013-03-26 04:51:00,
2013-03-26 01:06:00,62.9,44.0,29.99,WNW,302,4.0,-999.0,51,-99.99,,,0.00,weatherlink.com 1.10,2013-03-26 05:06:00,
2013-03-26 01:21:00,62.1,44.0,29.99,SW,217,1.0,-999.0,52,-99.99,,,0.00,weatherlink.com 1.10,2013-03-26 05:21:00,
2013-03-26 01:36:00,61.6,44.0,29.99,WNW,294,9.0,-999.0,52,-99.99,,,0.00,weatherlink.com 1.10,2013-03-26 05:36:00,
2013-03-26 02:21:00,59.3,43.0,30.01,NNW,334,6.0,-999.0,56,-99.99,,,0.00,weatherlink.com 1.10,2013-03-26 06:21:00,
2013-03-26 02:36:00,58.9,43.0,30.00,NNW,330,4.0,-999.0,57,-99.99,,,0.00,weatherlink.com 1.10,2013-03-26 06:36:00,
2013-03-26 02:51:00,58.4,44.0,29.99,North,11,6.0,-999.0,60,-99.99,,,0.00,weatherlink.com 1.10,2013-03-26 06:51:00,
2013-03-26 03:06:00,57.9,45.0,30.00,WNW,291,3.0,-999.0,62,-99.99,,,0.00,weatherlink.com 1.10,2013-03-26 07:06:00,
2013-03-26 03:21:00,57.7,44.0,29.99,NW,319,3.0,-999.0,60,-99.99,,,0.00,weatherlink.com 1.10,2013-03-26 07:21:00,
2013-03-26 03:51:00,57.9,43.0,30.00,NNW,333,5.0,-999.0,57,-99.99,,,0.00,weatherlink.com 1.10,2013-03-26 07:51:00,
2013-03-26 04:06:00,58.0,42.0,30.00,NNE,27,4.0,-999.0,55,-99.99,,,0.00,weatherlink.com 1.10,2013-03-26 08:06:00,
2013-03-26 04:21:00,57.8,42.0,30.00,NW,322,8.0,-999.0,56,-99.99,,,0.00,weatherlink.com 1.10,2013-03-26 08:21:00,
2013-03-26 04:36:00,57.7,42.0,30.00,NNW,327,6.0,-999.0,56,-99.99,,,0.00,weatherlink.com 1.10,2013-03-26 08:36:00,
2013-03-26 04:51:00,57.4,42.0,30.01,NW,313,3.0,-999.0,57,-99.99,,,0.00,weatherlink.com 1.10,2013-03-26 08:51:00,
2013-03-26 05:06:00,57.0,43.0,30.01,NNE,13,3.0,-999.0,59,-99.99,,,0.00,weatherlink.com 1.10,2013-03-26 09:06:00,
2013-03-26 05:21:00,56.6,43.0,30.01,WNW,293,3.0,-999.0,60,-99.99,,,0.00,weatherlink.com 1.10,2013-03-26 09:21:00,
2013-03-26 05:36:00,56.4,42.0,30.01,NNW,338,5.0,-999.0,60,-99.99,,,0.00,weatherlink.com 1.10,2013-03-26 09:36:00,
2013-03-26 05:51:00,56.5,42.0,30.02,NW,306,3.0,-999.0,59,-99.99,,,0.00,weatherlink.com 1.10,2013-03-26 09:51:00,
2013-03-26 06:06:00,56.5,41.0,30.03,NNW,329,6.0,-999.0,57,-99.99,,,0.00,weatherlink.com 1.10,2013-03-26 10:06:00,
2013-03-26 06:22:00,56.5,41.0,30.04,NW,316,4.0,-999.0,56,-99.99,,,0.00,weatherlink.com 1.10,2013-03-26 10:22:00,
2013-03-26 06:37:00,56.3,41.0,30.04,WNW,286,2.0,-999.0,56,-99.99,,,0.00,weatherlink.com 1.10,2013-03-26 10:37:00,
2013-03-26 06:52:00,55.8,40.0,30.05,NW,319,4.0,-999.0,56,-99.99,,,0.00,weatherlink.com 1.10,2013-03-26 10:52:00,
2013-03-26 07:06:00,55.5,40.0,30.05,NW,309,2.0,-999.0,57,-99.99,,,0.00,weatherlink.com 1.10,2013-03-26 11:06:00,
2013-03-26 07:21:00,55.3,41.0,30.05,NW,326,2.0,-999.0,58,-99.99,,,0.00,weatherlink.com 1.10,2013-03-26 11:21:00,
2013-03-26 07:37:00,55.1,41.0,30.06,NW,323,3.0,-999.0,59,-99.99,,,0.00,weatherlink.com 1.10,2013-03-26 11:37:00,
2013-03-26 07:52:00,55.1,40.0,30.06,NW,317,4.0,-999.0,57,-99.99,,,0.00,weatherlink.com 1.10,2013-03-26 11:52:00,
2013-03-26 08:07:00,55.1,39.0,30.06,NNW,329,2.0,-999.0,55,-99.99,,,0.00,weatherlink.com 1.10,2013-03-26 12:07:00,
2013-03-26 08:21:00,55.1,39.0,30.07,NNW,334,2.0,-999.0,54,-99.99,,,0.00,weatherlink.com 1.10,2013-03-26 12:21:00,
2013-03-26 08:37:00,55.7,39.0,30.08,NNW,337,2.0,-999.0,54,-99.99,,,0.00,weatherlink.com 1.10,2013-03-26 12:37:00,
2013-03-26 08:52:00,56.5,39.0,30.08,NW,313,6.0,-999.0,52,-99.99,,,0.00,weatherlink.com 1.10,2013-03-26 12:52:00,
2013-03-26 09:07:00,57.0,38.0,30.09,NNW,333,3.0,-999.0,49,-99.99,,,0.00,weatherlink.com 1.10,2013-03-26 13:07:00,
2013-03-26 09:22:00,58.1,37.0,30.09,NW,319,5.0,-999.0,46,-99.99,,,0.00,weatherlink.com 1.10,2013-03-26 13:22:00,
2013-03-26 09:37:00,58.9,37.0,30.10,NW,309,3.0,-999.0,44,-99.99,,,0.00,weatherlink.com 1.10,2013-03-26 13:37:00,
2013-03-26 09:52:00,59.1,36.0,30.10,NW,325,5.0,-999.0,43,-99.99,,,0.00,weatherlink.com 1.10,2013-03-26 13:52:00,
2013-03-26 10:22:00,60.3,37.0,30.10,NW,320,5.0,-999.0,43,-99.99,,,0.00,weatherlink.com 1.10,2013-03-26 14:22:00,
2013-03-26 10:37:00,60.9,37.0,30.11,NW,309,8.0,-999.0,41,-99.99,,,0.00,weatherlink.com 1.10,2013-03-26 14:37:00,
2013-03-26 10:52:00,60.9,37.0,30.11,NNW,342,3.0,-999.0,42,-99.99,,,0.00,weatherlink.com 1.10,2013-03-26 14:52:00,
2013-03-26 11:07:00,61.6,38.0,30.11,NW,323,5.0,-999.0,42,-99.99,,,0.00,weatherlink.com 1.10,2013-03-26 15:07:00,
2013-03-26 11:22:00,62.1,37.0,30.11,WNW,302,4.0,-999.0,40,-99.99,,,0.00,weatherlink.com 1.10,2013-03-26 15:22:00,
2013-03-26 11:37:00,62.6,38.0,30.10,WNW,300,3.0,-999.0,40,-99.99,,,0.00,weatherlink.com 1.10,2013-03-26 15:37:00,
2013-03-26 11:52:00,62.6,37.0,30.10,WNW,288,4.0,-999.0,39,-99.99,,,0.00,weatherlink.com 1.10,2013-03-26 15:52:00,
2013-03-26 12:07:00,63.4,36.0,30.11,North,349,5.0,-999.0,36,-99.99,,,0.00,weatherlink.com 1.10,2013-03-26 16:07:00,
2013-03-26 12:22:00,64.0,36.0,30.11,WNW,290,2.0,-999.0,36,-99.99,,,0.00,weatherlink.com 1.10,2013-03-26 16:22:00,
2013-03-26 12:37:00,63.8,34.0,30.11,NNW,341,6.0,-999.0,33,-99.99,,,0.00,weatherlink.com 1.10,2013-03-26 16:37:00,
2013-03-26 12:52:00,63.9,36.0,30.11,WNW,284,8.0,-999.0,35,-99.99,,,0.00,weatherlink.com 1.10,2013-03-26 16:52:00,
2013-03-26 13:07:00,64.3,37.0,30.10,NW,307,6.0,-999.0,36,-99.99,,,0.00,weatherlink.com 1.10,2013-03-26 17:07:00,
2013-03-26 13:22:00,65.1,37.0,30.09,NW,309,3.0,-999.0,35,-99.99,,,0.00,weatherlink.com 1.10,2013-03-26 17:22:00,
2013-03-26 13:36:00,64.9,36.0,30.09,WNW,294,5.0,-999.0,34,-99.99,,,0.00,weatherlink.com 1.10,2013-03-26 17:36:00,
2013-03-26 13:52:00,65.1,35.0,30.10,WNW,294,2.0,-999.0,33,-99.99,,,0.00,weatherlink.com 1.10,2013-03-26 17:52:00,
2013-03-26 14:07:00,64.5,35.0,30.09,NNW,346,10.0,-999.0,34,-99.99,,,0.00,weatherlink.com 1.10,2013-03-26 18:07:00,
2013-03-26 14:22:00,64.8,37.0,30.09,WNW,291,9.0,-999.0,36,-99.99,,,0.00,weatherlink.com 1.10,2013-03-26 18:22:00,
2013-03-26 14:37:00,65.3,37.0,30.08,WNW,298,7.0,-999.0,35,-99.99,,,0.00,weatherlink.com 1.10,2013-03-26 18:37:00,
2013-03-26 14:52:00,65.5,38.0,30.08,NW,311,4.0,-999.0,37,-99.99,,,0.00,weatherlink.com 1.10,2013-03-26 18:52:00,
2013-03-26 15:07:00,64.9,37.0,30.08,NNE,19,2.0,-999.0,36,-99.99,,,0.00,weatherlink.com 1.10,2013-03-26 19:07:00,
2013-03-26 15:22:00,65.4,39.0,30.08,NW,313,7.0,-999.0,38,-99.99,,,0.00,weatherlink.com 1.10,2013-03-26 19:22:00,
2013-03-26 15:37:00,65.4,36.0,30.07,West,260,2.0,-999.0,34,-99.99,,,0.00,weatherlink.com 1.10,2013-03-26 19:37:00,
2013-03-26 15:53:00,64.9,36.0,30.07,North,350,5.0,-999.0,34,-99.99,,,0.00,weatherlink.com 1.10,2013-03-26 19:53:00,
2013-03-26 16:07:00,65.6,38.0,30.07,WSW,250,7.0,-999.0,36,-99.99,,,0.00,weatherlink.com 1.10,2013-03-26 20:07:00,
2013-03-26 16:22:00,65.6,37.0,30.07,NNE,15,8.0,-999.0,35,-99.99,,,0.00,weatherlink.com 1.10,2013-03-26 20:22:00,
2013-03-26 16:37:00,65.2,37.0,30.07,NW,306,5.0,-999.0,36,-99.99,,,0.00,weatherlink.com 1.10,2013-03-26 20:37:00,
2013-03-26 16:52:00,64.9,37.0,30.07,NNW,334,10.0,-999.0,36,-99.99,,,0.00,weatherlink.com 1.10,2013-03-26 20:52:00,
2013-03-26 17:07:00,64.9,38.0,30.07,NNW,329,5.0,-999.0,37,-99.99,,,0.00,weatherlink.com 1.10,2013-03-26 21:07:00,
2013-03-26 17:22:00,65.1,38.0,30.07,WNW,287,3.0,-999.0,37,-99.99,,,0.00,weatherlink.com 1.10,2013-03-26 21:22:00,
2013-03-26 17:37:00,65.3,38.0,30.07,NW,321,7.0,-999.0,36,-99.99,,,0.00,weatherlink.com 1.10,2013-03-26 21:37:00,
2013-03-26 17:53:00,64.9,39.0,30.08,West,263,3.0,-999.0,38,-99.99,,,0.00,weatherlink.com 1.10,2013-03-26 21:53:00,
2013-03-26 18:07:00,64.6,39.0,30.08,WNW,284,4.0,-999.0,39,-99.99,,,0.00,weatherlink.com 1.10,2013-03-26 22:07:00,
2013-03-26 18:22:00,64.3,39.0,30.08,WNW,283,3.0,-999.0,40,-99.99,,,0.00,weatherlink.com 1.10,2013-03-26 22:22:00,
2013-03-26 18:38:00,64.2,41.0,30.09,NW,306,8.0,-999.0,43,-99.99,,,0.00,weatherlink.com 1.10,2013-03-26 22:38:00,
2013-03-26 19:07:00,63.3,39.0,30.09,West,275,2.0,-999.0,41,-99.99,,,0.00,weatherlink.com 1.10,2013-03-26 23:07:00,
2013-03-26 19:23:00,62.4,39.0,30.10,NW,307,5.0,-999.0,43,-99.99,,,0.00,weatherlink.com 1.10,2013-03-26 23:23:00,
2013-03-26 19:37:00,61.5,38.0,30.11,NW,311,5.0,-999.0,42,-99.99,,,0.00,weatherlink.com 1.10,2013-03-26 23:37:00,
2013-03-26 19:52:00,60.7,38.0,30.12,NW,326,7.0,-999.0,43,-99.99,,,0.00,weatherlink.com 1.10,2013-03-26 23:52:00,
2013-03-26 20:07:00,60.0,39.0,30.13,West,280,3.0,-999.0,46,-99.99,,,0.00,weatherlink.com 1.10,2013-03-27 00:07:00,
2013-03-26 20:22:00,59.4,38.0,30.14,SW,219,1.0,-999.0,46,-99.99,,,0.00,weatherlink.com 1.10,2013-03-27 00:22:00,
2013-03-26 20:37:00,58.6,38.0,30.14,NW,317,4.0,-999.0,46,-99.99,,,0.00,weatherlink.com 1.10,2013-03-27 00:37:00,
2013-03-26 20:52:00,57.9,37.0,30.14,WNW,290,0.0,-999.0,46,-99.99,,,0.00,weatherlink.com 1.10,2013-03-27 00:52:00,
2013-03-26 21:07:00,57.2,36.0,30.15,West,271,0.0,-999.0,46,-99.99,,,0.00,weatherlink.com 1.10,2013-03-27 01:07:00,
2013-03-26 21:22:00,56.6,38.0,30.16,North,350,2.0,-999.0,50,-99.99,,,0.00,weatherlink.com 1.10,2013-03-27 01:22:00,
2013-03-26 21:38:00,56.0,39.0,30.17,West,267,2.0,-999.0,53,-99.99,,,0.00,weatherlink.com 1.10,2013-03-27 01:38:00,
2013-03-26 21:53:00,55.5,39.0,30.17,NW,309,5.0,-999.0,55,-99.99,,,0.00,weatherlink.com 1.10,2013-03-27 01:53:00,
2013-03-26 22:08:00,54.7,40.0,30.18,SW,234,0.0,-999.0,58,-99.99,,,0.00,weatherlink.com 1.10,2013-03-27 02:08:00,
2013-03-26 22:23:00,54.3,40.0,30.18,SW,217,1.0,-999.0,60,-99.99,,,0.00,weatherlink.com 1.10,2013-03-27 02:23:00,
2013-03-26 22:38:00,53.6,41.0,30.19,NW,322,2.0,-999.0,62,-99.99,,,0.00,weatherlink.com 1.10,2013-03-27 02:38:00,
2013-03-26 22:53:00,53.2,41.0,30.19,West,276,1.0,-999.0,64,-99.99,,,0.00,weatherlink.com 1.10,2013-03-27 02:53:00,
2013-03-26 23:08:00,52.8,41.0,30.20,West,277,1.0,-999.0,65,-99.99,,,0.00,weatherlink.com 1.10,2013-03-27 03:08:00,
2013-03-26 23:23:00,52.4,41.0,30.20,West,264,1.0,-999.0,65,-99.99,,,0.00,weatherlink.com 1.10,2013-03-27 03:23:00,
2013-03-26 23:38:00,52.0,41.0,30.20,NNW,336,4.0,-999.0,66,-99.99,,,0.00,weatherlink.com 1.10,2013-03-27 03:38:00,
2013-03-26 23:53:00,51.9,42.0,30.20,WNW,287,1.0,-999.0,68,-99.99,,,0.00,weatherlink.com 1.10,2013-03-27 03:53:00,